Regional Weather Roundup
Issued by NWS

Home | Current Version | Previous Version | Graphics & Text | Print | Product List | Glossary On
Versions: 1 2 3 4 5 6 7 8 9 10 11 12 13 14 15 16 17 18 19 20 21 22 23 24 25 26 27 28 29 30 31 32 33 34 35 36 37 38 39 40 41 42 43 44 45 46 47 48 49 50
000
ASUS43 KDMX 230607
RWRIA

WEATHER ROUNDUP FOR IOWA
NATIONAL WEATHER SERVICE DES MOINES IA
100 AM CDT SAT MAY 23 2015

NOTE: "FAIR" INDICATES FEW OR NO CLOUDS BELOW 12,000 FEET WITH NO
SIGNIFICANT WEATHER AND/OR OBSTRUCTIONS TO VISIBILITY.

* - THESE STATIONS ARE NOT NWS STATIONS...THUS NOT UNDER NWS
QUALITY CONTROL.  THEY ALSO DO NOT REPORT WEATHER SUCH
AS PRECIPITATION OR FOG.

IAZ001>003-012>014-020>022-031>034-043>046-230700-
   NORTHWEST IOWA

CITY           SKY/WX    TMP DP  RH WIND       PRES   REMARKS
CARROLL *      MOCLDY    61  43  51 S5        30.21R
CHEROKEE *     CLOUDY    56  51  85 CALM      30.20S
DENISON *      MOCLDY    59  48  67 SE6       30.19S
LE MARS *      CLOUDY    59  46  63 E6        30.20F
ORANGE CITY *  LGT RAIN  55  46  71 SW8       30.22R
SHELDON *      CLOUDY    59  43  55 S8        30.19S
SIOUX CITY     CLOUDY    56  49  77 SE6       30.19R
6HR MIN TEMP:  56; 6HR MAX TEMP:  63; 6HR PCP:  0.01;

SPENCER        CLOUDY    57  47  69 CALM      30.21S
6HR MIN TEMP:  56; 6HR MAX TEMP:  71;

STORM LAKE *   CLOUDY    61  43  51 S6        30.22R
$$

IAZ055>058-069>071-079>083-090>094-230700-
   SOUTHWEST IOWA

CITY           SKY/WX    TMP DP  RH WIND       PRES   REMARKS
ATLANTIC *     CLOUDY    55  48  76 SW7       30.21S
AUDUBON *      MOCLDY    55  52  88 CALM      30.22S
CLARINDA *     PTCLDY    54  50  87 CALM      30.22S
COUNCIL BLFS * CLOUDY    59  50  72 SE9       30.20S
CRESTON *      CLOUDY    57  48  72 S6        30.22S
HARLAN  *      MOCLDY    57  50  77 S3        30.24S
LAMONI           N/A     60  52  74 SE6       30.22S
6HR MIN TEMP:  57; 6HR MAX TEMP:  69;

RED OAK *      CLOUDY    57  50  77 S5        30.21S
SHENANDOAH *   PTCLDY    55  52  88 SE6       30.21S
$$

IAZ047>049-059>061-072>074-084-230700-
   CENTRAL IOWA

CITY           SKY/WX    TMP DP  RH WIND       PRES   REMARKS
AMES           CLOUDY    57  50  77 CALM      30.21F
6HR MIN TEMP:  57; 6HR MAX TEMP:  70;

ANKENY *       CLOUDY    55  52  88 CALM      30.22R
CHARITON *     CLEAR     54  50  87 S3        30.22S
DES MOINES     MOCLDY    59  49  69 S5        30.22R
6HR MIN TEMP:  59; 6HR MAX TEMP:  71; 6HR PCP: TRACE;

GRINNELL*      CLOUDY    59  46  63 NW3       30.23R
KNOXVILLE *    CLOUDY    57  46  67 CALM      30.21S
MARSHALLTOWN   MOCLDY    59  46  62 NW3       30.22S
6HR MIN TEMP:  59; 6HR MAX TEMP:  71;

PELLA *        CLEAR     55  52  88 CALM      30.24R
PERRY *        CLOUDY    57  50  76 SE3       30.21S
$$

IAZ004>006-015-016-023>025-035-036-230700-
   NORTH CENTRAL IOWA

CITY           SKY/WX    TMP DP  RH WIND       PRES   REMARKS
ALGONA *       CLOUDY    57  48  72 N3        30.22S
CLARION *      CLOUDY    57  48  72 S10       30.23R
ESTHERVILLE    CLOUDY    56  43  61 W3        30.21S
6HR MIN TEMP:  56; 6HR MAX TEMP:  70;

FORT DODGE *   CLOUDY    55  46  71 CALM      30.22S
MASON CITY     CLOUDY    58  46  64 W10       30.23S
6HR MIN TEMP:  55; 6HR MAX TEMP:  72;

FOREST CITY *  CLEAR     55  45  67 W6        30.23R
IOWA FALLS *     N/A     57  46  67 W5        30.23S
$$

IAZ007>011-017>019-026>030-037>042-050>054-066-230700-
   NORTHEAST IOWA

CITY           SKY/WX    TMP DP  RH WIND       PRES   REMARKS
CEDAR RAPIDS   CLOUDY    59  49  69 CALM      30.21F
6HR MIN TEMP:  59; 6HR MAX TEMP:  72;

CHARLES CITY * CLOUDY    59  39  47 S8        30.21S
CLINTON *      MOCLDY    59  37  44 E12       30.27S
DECORAH *      CLEAR     57  41  54 CALM      30.22R
DUBUQUE        MOCLDY    58  43  57 SE10      30.24R
6HR MIN TEMP:  58; 6HR MAX TEMP:  67;

MONTICELLO *   CLEAR     55  52  88 CALM      30.23R
OELWEIN *      CLOUDY    57  45  62 S8        30.23R
WATERLOO       CLOUDY    59  45  59 W5        30.21S
6HR MIN TEMP:  58; 6HR MAX TEMP:  71;

$$

IAZ064-065-067-068-078-230700-
   EAST CENTRAL IOWA

CITY           SKY/WX    TMP DP  RH WIND       PRES   REMARKS
DAVENPORT      CLOUDY    60  44  55 SE7       30.24R
6HR MIN TEMP:  59; 6HR MAX TEMP:  73;

IOWA CITY      CLOUDY    61  50  67 CALM      30.23F
6HR MIN TEMP:  60; 6HR MAX TEMP:  73;

MT. PLEASANT * MOCLDY    57  52  82 CALM      30.23S
MUSCATINE *    CLOUDY    63  52  67 CALM      30.22F
QUAD CITIES    CLOUDY    60  47  61 E7        30.23R
6HR MIN TEMP:  57; 6HR MAX TEMP:  73;

$$

IAZ062-063-075>077-085>089-095>099-230700-
   SOUTHEAST IOWA

CITY           SKY/WX    TMP DP  RH WIND       PRES   REMARKS
BURLINGTON     CLOUDY    59  56  89 S3        30.22F
6HR MIN TEMP:  59; 6HR MAX TEMP:  71;

FAIRFIELD *    PTCLDY    57  52  82 SW7       30.23S
FORT MADISON * MOCLDY    57  54  88 CALM      30.24S
KEOKUK *       CLOUDY    57  55  94 SW5       30.23S
OSKALOOSA *      N/A     57  50  77 CALM      30.23R
CENTERVILLE *  CLEAR     50  50 100 CALM      30.24S
OTTUMWA        PTCLDY    55  50  83 SW5       30.23R
6HR MIN TEMP:  55; 6HR MAX TEMP:  70;

WASHINGTON *   CLOUDY    59  54  82 CALM      30.24S
$$

ABBREVIATIONS USED IN REMARKS
   TC - TEMPERATURES IN CELSIUS
  WCI - WIND CHILL INDEX
   HX - HEAT INDEX
  VSB - VISIBILITY
$$



USA.gov is the U.S. government's official web portal to all federal, state and local government web resources and services.